Terminal Aerodrome Forecast
Issued by NWS Pueblo, CO

Home | Current Version | Previous Version | Text Only | Print | Product List | Glossary On
Versions: 1 2 3 4 5 6 7 8 9 10 11 12 13 14 15 16 17 18 19 20 21 22 23 24 25 26 27 28 29 30 31 32 33 34 35 36 37 38
000
FTUS45 KPUB 201721
TAFPUB
TAF
KPUB 201721Z 2018/2118 25008KT P6SM SCT100 BKN200
     FM202100 17009KT P6SM SCT100 SCT200
     FM210200 VRB06KT P6SM SCT100 SCT200
     FM210400 01009KT P6SM SCT200
     FM211200 VRB06KT P6SM SCT200=

USA.gov is the U.S. government's official web portal to all federal, state and local government web resources and services.